STARLINK-2099, 47379

Orbit data source: Space-Track

STARLINK-2099, 47379 is a payload satellite owned by SpaceX/Seattle (US) in LEO that was launched on Wed, 20 Jan 2021 UTC via an FALCON 9 launch vehicle from the Air Force Eastern Test Range (AFETR). Payload-class satellites include a variety of spacecraft equipped with specific instruments for various scientific and technological missions. These include communications satellites like Starlink; space stations such as the ISS; scientific satellites like the Hubble; Earth observation satellites from companies like Planet Labs, Umbra, and HawkEye 360; GPS; miniature CubeSats for education and research; and military/defense satellites.

Loading next visibility...
Identifier
47379, 2021-005AG
Orbit
LEO
Country
Flag of USUS
Related business
Manufacturer
SpaceX/Seattle
Mission
Operational Commercial Communications
Bus & Motor
STARLINK, Unknown motor
Mass
260 kg wet, ~248 kg dry
Launch date (UTC)
2021-01-20 (5 years ago)
Launch vehicle
FALCON 9
Launch site
Air Force Eastern Test Range (AFETR)
Object type
Payload
Rocket body
Debris
Shape & HBR
Box + 1 Pan, 10.1 m
Radar Cross Section
13.562 m², Large (>1 m²)

Expand to show TLE details & history
Last TLE update: 3 days ago

TLE from 3 days ago
0 STARLINK-2099
1 47379U 21005AG  26170.50646371 -.00000477  00000-0 -36193-5 0  9993
2 47379  53.1584 259.8751 0000511  60.0975 300.0077 15.31690048299328
Epoch: 2026-06-19T12:09Z
TLE epoch observation values (Epoch: 2026-06-19T12:09:18.464Z)
Latitude
-0.00003°
Longitude
169.81368°
Altitude
471.495 km
Speed
7.632 km/s
True Right ascension
17h 19m 30s
True Declination
0° 00' 00"
Sunlit
Object was in full shadow at epoch
Visualization orbit readout
Latitude
Unknown
Longitude
Unknown
Altitude
Unknown
Speed
Unknown
Apparent Right ascension
Unknown
Apparent Declination
Unknown
Sunlit
N/A
Visualization observer readout
Local Sidereal Time
21:47:26
Azimuth
Unknown
Elevation
Unknown
Doppler factor
Unknown
Orbital elements
Apogee altitude
471.377 km
Perigee altitude
470.677 km
Semi-major axis
6,849.164 km
Eccentricity
0.00005
Inclination
53.1584°
RAAN
259.8751°
Arg. of periapsis
60.0975°
True anomaly
300.00263°
Mean anomaly
300.0077°
Eccentric anomaly
300.00516°
Mean motion
3.82901 °/min
Orbital period
94.02 mins
BSTAR
-0.0000036193
Loading maneuver chart data...
Computing Atmospheric mass density...

Documentation

Showing up to 5 results
|